Theta_e
318 318 318 318 319 319 320 320 321 322 322 322 322 323 323 321 321 321 321 321 322 322 322 322 322 323 323 323 323 322 322 319 314 311 311 316 321 329 325 325 332 328 326 313 311 307 304 305 305 307 305 304 304 302 307 305 309 304 297 295 293 295 295 299 297 299 301 300 301 302 301 300 299 302 301 302 300 299 300 300 303 304 303 304 305 306 305 306
317 318 318 318 318 318 319 319 320 321 321 321 321 322 322 322 322 320 320 320 321 322 322 321 321 322 323 322 322 322 320 316 312 312 311 321 328 329 329 326 330 331 326 309 308 307 304 302 304 305 303 300 308 301 307 302 306 298 296 295 292 296 298 302 301 302 300 299 302 303 303 301 301 302 304 300 300 300 299 300 302 302 304 305 305 305 304 304
317 317 317 317 317 317 318 319 319 319 320 320 321 321 321 321 322 321 319 318 319 322 322 321 321 321 322 322 322 322 319 315 313 311 310 326 326 327 327 327 329 330 316 308 308 309 306 303 304 303 301 300 302 300 304 301 302 300 297 293 294 299 300 300 301 302 303 302 301 301 302 302 302 302 304 300 299 301 299 299 300 302 303 305 305 305 306 304
316 316 316 316 316 317 318 318 318 319 319 319 320 320 320 320 321 320 320 318 318 319 320 320 319 320 321 321 322 321 319 313 308 305 314 323 325 326 328 328 329 329 320 315 312 307 307 306 303 302 300 298 300 302 299 301 299 300 297 295 297 301 299 302 303 303 303 303 302 301 302 301 303 303 303 301 298 299 301 303 302 302 303 305 307 308 307 306
315 315 315 315 316 316 317 317 318 318 318 318 319 318 318 319 319 320 319 319 318 319 320 318 319 320 320 320 320 321 315 306 303 310 315 324 326 325 326 328 329 324 318 314 311 307 305 303 306 301 299 295 298 299 298 301 303 301 296 298 299 299 298 302 302 303 303 303 301 301 299 300 304 303 302 301 297 297 299 303 304 305 305 305 305 305 306 305
314 314 314 314 314 315 315 316 317 317 317 318 318 318 318 318 319 319 319 319 319 320 320 319 318 318 319 320 319 319 310 292 314 311 317 323 327 326 327 327 330 325 320 314 308 305 303 301 300 297 295 295 295 294 298 299 303 294 297 298 299 300 298 301 302 303 302 302 300 300 302 303 301 300 301 300 300 302 304 305 305 305 306 306 306 305 303 303
314 314 314 314 314 314 314 315 315 315 316 316 317 317 317 317 318 318 318 319 319 319 320 320 316 317 318 321 321 315 307 307 315 317 321 322 322 327 327 330 328 318 313 307 305 302 302 300 298 296 295 295 295 295 297 299 301 298 294 297 298 301 299 301 300 301 299 299 299 301 302 299 300 296 300 299 302 304 305 306 305 306 305 305 304 304 303 303
313 313 313 313 313 313 314 314 314 314 315 316 316 316 316 317 317 317 318 319 319 319 320 319 315 316 319 317 310 307 308 306 309 315 322 324 325 328 329 323 321 317 309 305 303 304 302 299 296 298 295 293 296 295 297 297 299 296 295 298 298 299 300 301 301 301 299 299 300 300 298 298 299 299 300 299 302 303 304 304 304 304 304 303 303 302 303 302
313 312 313 313 313 313 313 313 313 314 314 315 315 315 316 317 316 317 317 318 318 319 319 320 315 317 318 315 310 302 303 317 311 312 314 313 313 319 324 314 317 310 307 306 306 305 305 300 298 298 293 294 297 294 297 295 293 298 297 298 298 298 299 300 300 300 300 300 300 297 297 299 299 300 297 299 301 302 302 302 302 302 301 301 302 302 302 302
312 312 312 312 312 312 312 313 313 313 314 314 315 315 316 316 316 316 317 317 317 318 319 319 315 317 316 311 309 299 314 318 314 311 313 312 311 311 314 313 311 308 305 305 307 307 304 302 301 305 303 297 299 295 298 297 294 299 297 298 298 299 298 299 299 299 299 299 299 297 296 297 299 298 293 299 301 300 300 300 301 301 300 301 301 302 302 302
311 311 311 311 311 311 312 312 312 313 313 313 314 314 315 315 315 315 316 316 317 318 319 319 318 317 311 307 302 299 317 318 312 312 312 314 311 310 309 310 314 307 306 306 306 305 305 303 309 306 305 296 298 298 297 299 299 298 298 296 296 297 297 298 298 298 298 297 298 297 295 297 297 296 294 297 299 300 299 300 300 299 299 299 300 300 300 301
311 311 311 311 311 311 311 311 312 312 313 313 313 314 314 314 314 315 315 316 317 318 318 319 317 316 311 304 302 304 318 318 311 313 315 313 310 311 311 311 310 308 307 303 305 308 308 310 309 306 296 304 294 297 297 297 298 297 296 291 294 296 295 297 296 297 298 296 297 296 292 291 293 292 296 298 299 299 299 299 299 299 299 299 299 299 299 300
311 311 311 311 310 311 311 311 311 312 312 313 313 313 313 313 314 314 315 315 317 317 319 319 312 314 310 301 306 317 316 314 315 314 312 315 315 312 316 314 314 311 310 305 304 310 310 307 307 300 305 302 297 293 295 296 296 297 295 292 292 292 291 296 297 297 296 296 295 294 283 288 292 294 297 299 299 299 298 298 298 299 298 298 298 298 299 300
311 310 310 310 310 310 310 311 311 311 312 312 312 312 313 313 313 314 314 315 316 317 318 320 317 314 308 302 314 316 320 315 316 311 313 314 312 313 310 314 314 314 313 310 311 308 310 308 309 307 307 301 298 301 294 294 296 291 293 294 289 287 287 294 295 293 293 294 293 294 284 288 292 295 297 298 300 298 295 295 296 297 298 297 297 298 298 299
311 310 310 310 310 310 310 310 310 310 311 311 311 312 312 312 313 314 315 315 316 317 317 319 317 310 302 304 321 320 317 317 311 312 316 311 312 309 308 311 312 312 311 311 310 311 311 311 308 301 297 302 302 297 293 293 292 292 288 286 288 286 289 292 295 292 291 292 293 292 284 287 291 294 298 298 297 298 294 295 295 297 297 298 298 297 298 299
310 310 310 309 309 309 309 310 310 310 311 311 311 311 312 312 313 314 315 316 318 318 320 314 314 309 302 295 309 322 315 310 310 312 313 314 311 308 311 312 311 310 311 310 312 310 310 309 302 299 301 301 298 293 291 290 290 291 288 287 287 287 288 291 291 294 295 292 293 291 285 289 290 294 296 298 297 295 294 295 296 297 298 298 298 299 299 299
310 309 309 309 309 309 309 309 309 310 310 310 310 311 312 313 314 315 316 317 318 320 317 309 312 312 295 313 321 306 308 314 313 313 313 313 312 312 312 312 307 308 310 309 308 311 307 306 303 299 303 296 295 295 288 286 286 288 290 286 289 287 288 287 290 292 294 291 289 291 287 288 291 294 296 297 297 297 296 296 297 298 298 298 298 298 298 298
309 308 308 308 309 309 309 309 309 309 310 310 310 311 310 313 314 314 315 317 320 317 317 318 312 305 301 311 301 304 312 312 311 309 311 311 313 311 310 308 307 307 307 306 308 303 304 300 299 293 295 293 294 291 285 282 286 287 287 285 287 288 289 288 288 290 292 291 288 288 289 289 291 293 295 296 297 297 296 296 297 297 297 298 299 298 298 298
308 308 308 308 308 308 308 308 308 309 309 311 312 314 314 313 313 314 313 313 309 305 298 301 299 289 293 304 310 310 312 313 312 310 310 312 314 310 311 310 307 305 301 298 298 303 300 298 296 291 287 289 289 291 289 290 292 290 290 288 287 285 286 287 292 290 291 289 288 288 287 289 291 292 294 296 296 296 297 298 298 298 299 299 299 299 299 299
308 307 307 308 308 308 308 308 308 309 309 308 309 313 312 307 308 306 310 310 304 304 305 309 303 306 302 305 308 310 313 315 308 309 312 315 312 309 306 307 305 303 299 295 297 299 299 290 286 285 288 291 293 293 293 293 293 292 291 289 287 287 288 291 291 291 293 289 287 288 289 289 290 292 295 297 297 297 297 297 297 298 299 300 299 299 300 301
307 307 307 307 308 307 307 308 308 308 309 308 308 308 304 303 299 298 304 305 307 307 304 307 304 304 304 307 311 308 307 309 311 308 310 315 314 309 302 303 299 295 295 300 295 301 299 288 288 291 292 293 294 296 294 293 292 291 289 287 286 288 286 291 293 291 291 288 286 289 289 290 292 294 295 297 296 296 297 297 297 298 299 299 300 301 301 302
306 307 307 308 307 307 307 307 308 308 309 308 307 307 309 306 310 308 304 293 306 308 308 306 310 306 309 308 311 313 308 303 304 307 311 311 306 301 301 299 295 291 296 296 294 292 289 286 290 294 297 298 296 297 296 293 291 291 288 287 286 287 290 292 291 292 293 290 286 288 288 289 291 293 295 295 295 296 297 298 298 298 298 299 300 300 302 302
306 306 306 307 307 307 307 308 308 309 307 306 304 305 307 309 315 314 311 301 296 305 306 306 304 304 306 310 311 310 302 298 298 305 305 309 304 301 300 294 293 295 296 296 290 288 285 288 293 295 295 295 295 294 293 292 292 287 286 284 283 288 287 284 291 290 292 289 287 288 287 289 293 295 295 297 297 297 299 299 300 300 298 300 299 301 301 300
305 306 306 306 306 306 307 308 309 306 304 306 306 306 315 315 312 314 308 296 293 307 308 308 308 306 303 303 309 304 299 301 300 301 311 307 301 303 300 296 294 293 292 294 292 289 288 295 294 295 294 295 293 294 292 288 285 288 288 286 285 287 289 288 288 291 293 292 291 288 288 289 292 292 293 295 297 299 300 300 299 299 303 301 302 301 302 299
305 305 305 306 305 306 307 308 304 304 307 305 305 309 311 314 312 313 302 294 295 297 305 305 308 309 309 310 311 302 303 304 305 309 308 307 304 299 298 302 298 291 293 295 293 291 291 294 296 294 295 294 292 290 289 289 283 285 289 289 288 291 290 290 291 290 286 284 290 290 281 281 288 289 290 293 293 295 296 297 298 298 299 299 299 300 301 304
305 305 305 305 305 306 308 302 305 310 307 304 306 313 312 313 313 314 303 287 284 297 300 295 308 299 312 305 307 307 304 298 306 309 310 309 309 305 300 296 298 291 294 294 292 292 292 291 294 294 292 293 292 290 291 290 284 283 285 288 292 291 290 290 288 288 281 281 288 291 281 279 286 288 291 293 292 293 296 296 297 299 299 298 300 300 301 302
305 305 305 305 305 306 303 302 308 307 302 305 309 311 312 311 315 309 296 285 282 296 295 299 299 303 309 306 304 307 287 293 305 308 308 307 306 310 299 294 295 296 297 296 287 285 291 292 291 291 293 291 289 286 292 290 285 283 290 292 291 290 289 289 290 287 284 288 286 289 286 278 281 287 292 293 291 292 294 296 297 298 299 298 298 299 300 300
305 305 305 305 305 305 302 303 305 304 305 306 310 309 313 313 314 310 292 277 276 298 298 296 302 310 308 306 307 300 299 302 296 301 308 308 307 303 297 296 293 294 295 292 282 290 293 289 290 289 288 286 285 291 291 293 287 288 291 293 292 292 292 291 287 285 285 283 281 283 285 280 279 287 294 294 290 291 292 294 295 296 297 298 298 299 300 300
305 305 305 305 305 306 306 303 302 304 308 311 309 310 312 314 306 299 286 277 289 298 306 296 309 306 303 305 301 302 300 302 296 301 306 306 306 304 293 295 297 297 296 294 287 291 293 293 293 293 288 285 289 288 289 291 289 292 293 293 293 292 291 291 285 285 284 282 279 282 283 278 279 287 290 292 289 291 292 294 294 296 297 298 299 301 300 300
304 305 305 305 305 304 302 304 302 308 309 309 309 308 310 306 300 287 278 272 297 287 300 301 299 297 300 296 297 299 296 300 301 302 304 302 304 305 300 301 300 297 294 297 293 294 294 294 295 294 291 293 288 289 290 291 292 293 292 292 290 289 286 287 285 284 282 276 280 284 284 281 276 284 287 287 293 293 292 293 295 297 298 299 301 298 299 298
304 304 305 305 300 305 305 301 304 306 308 309 309 309 306 302 289 283 274 283 294 294 299 296 296 301 295 294 292 298 297 299 298 300 296 302 298 301 301 296 301 293 291 292 290 292 292 293 292 293 294 294 292 289 291 290 292 293 288 285 284 284 285 283 283 283 277 276 281 281 285 285 275 281 288 291 292 292 292 293 293 295 296 298 299 299 298 297
304 304 304 302 303 305 299 302 304 308 305 307 307 304 300 286 287 279 279 300 284 289 290 291 297 296 295 297 296 295 293 297 299 297 295 293 293 291 292 288 288 282 282 284 285 293 289 290 291 291 293 294 290 289 288 290 290 288 286 285 279 278 279 277 279 275 275 276 281 283 285 281 280 285 289 291 293 294 294 294 296 295 295 297 298 299 298 299
305 304 304 304 304 301 302 304 307 308 306 304 304 303 289 284 275 285 284 285 283 293 290 299 295 295 296 293 292 297 296 293 298 297 298 297 294 293 295 294 294 289 282 286 285 285 286 290 291 291 291 292 294 286 284 282 284 285 282 281 279 275 274 271 275 279 279 279 281 282 286 279 284 288 292 292 293 294 295 297 298 297 296 297 298 299 299 300
304 304 301 303 303 303 304 306 308 307 303 305 301 296 287 280 279 290 284 285 284 292 296 295 295 296 290 289 293 295 288 296 292 294 295 289 291 287 293 295 295 293 290 286 282 283 280 282 287 289 285 292 292 291 289 289 285 286 287 285 280 281 278 272 276 274 276 279 281 282 279 277 279 286 291 294 295 294 294 295 296 296 297 297 297 297 298 297
305 303 303 302 302 303 304 305 307 305 302 302 296 289 281 280 284 283 284 285 287 294 290 288 293 289 288 287 291 295 295 289 295 293 291 289 286 286 288 291 295 295 292 282 286 284 284 284 286 288 289 290 290 293 292 291 287 287 289 288 281 281 283 277 279 277 277 277 277 278 277 281 285 292 294 296 294 294 293 294 295 295 295 297 296 298 297 297
303 300 302 300 300 302 304 305 305 304 301 299 290 285 282 285 283 287 287 299 293 288 290 291 295 287 287 287 289 292 295 288 294 289 286 289 290 287 291 291 294 295 290 284 286 280 285 282 286 290 291 289 288 291 292 291 280 285 285 281 282 286 286 281 277 278 277 275 275 280 282 286 291 292 294 295 292 291 292 293 293 294 295 296 296 298 297 298
298 300 297 300 301 304 305 305 304 302 300 297 288 283 287 287 291 293 296 295 296 296 289 282 285 285 282 284 287 288 289 292 289 287 283 289 286 289 291 293 299 296 295 291 285 291 282 284 286 287 286 288 290 289 289 291 290 283 280 282 287 289 287 280 276 278 277 274 276 282 278 280 282 280 291 290 291 290 290 291 292 294 294 295 296 297 298 298
298 297 297 298 303 305 306 305 303 300 300 294 286 290 288 287 298 296 298 293 296 296 290 285 285 289 283 284 285 288 290 284 287 284 282 286 284 296 292 292 298 297 296 295 287 287 288 280 283 285 286 288 289 289 288 290 290 287 284 286 283 279 277 281 279 271 271 271 274 278 280 281 281 284 288 287 289 290 291 291 291 293 294 294 296 298 299 299
297 296 292 300 301 303 303 304 302 299 296 288 287 287 287 287 298 296 298 299 298 296 289 289 285 286 285 284 290 289 287 283 286 284 282 284 283 293 294 295 294 294 296 295 287 287 289 280 281 283 286 287 285 283 281 282 288 287 289 284 282 282 279 278 279 279 279 272 272 274 279 278 287 286 289 290 291 291 291 291 291 293 294 295 296 298 299 298
294 293 292 297 301 302 303 302 300 298 292 285 287 287 288 287 293 297 295 297 292 291 290 290 289 285 282 284 289 286 287 288 286 285 284 286 286 297 293 297 294 292 294 295 289 292 284 284 278 281 283 285 281 283 282 285 282 281 281 280 281 281 283 281 280 279 277 274 275 273 274 279 289 292 290 290 291 291 292 292 293 293 294 295 295 298 298 300
297 294 294 297 300 301 301 300 295 290 288 290 288 287 284 285 295 295 296 294 298 298 296 293 292 286 284 282 283 287 287 286 288 286 285 284 285 283 294 294 294 290 292 287 289 287 284 282 280 280 280 278 282 286 287 288 287 284 283 281 284 280 278 274 275 281 279 277 274 275 275 283 290 294 293 291 292 294 293 294 294 294 294 295 297 296 298 298
293 284 292 299 300 301 299 291 290 291 289 288 287 290 288 296 290 293 290 292 293 293 292 291 292 292 287 284 286 286 286 285 285 285 286 285 290 288 294 297 295 293 289 284 286 291 288 286 283 280 281 283 285 284 285 285 283 283 284 282 286 283 282 278 273 276 277 278 276 277 274 281 291 293 292 292 291 291 293 294 294 296 297 296 298 298 297 297
291 288 296 299 301 299 297 288 290 290 288 289 293 291 294 291 289 291 287 290 287 291 292 287 290 288 287 288 285 285 287 284 286 285 287 286 286 290 294 295 296 292 294 288 292 286 292 284 281 283 283 280 281 285 284 284 284 284 283 283 284 284 284 282 281 279 279 277 276 276 273 281 291 291 291 291 291 291 293 293 293 293 294 296 297 296 296 295
292 293 294 301 301 299 294 283 284 286 288 287 287 289 295 292 290 287 286 289 288 286 290 290 292 293 288 291 287 283 287 281 288 288 285 287 289 290 293 294 293 288 289 287 287 290 283 282 282 279 279 281 279 280 279 280 282 281 282 284 284 285 286 284 282 281 279 279 279 277 274 281 292 292 292 292 292 292 292 292 292 293 293 294 294 295 295 295
293 297 296 296 299 297 290 290 287 286 287 287 287 286 286 288 291 292 291 289 293 291 290 289 292 293 289 289 286 285 286 286 283 288 288 288 287 287 292 292 290 290 294 290 291 292 285 283 282 276 274 273 272 273 276 278 279 281 281 284 285 285 284 281 278 279 276 278 281 277 278 286 291 290 291 291 290 290 291 292 292 292 293 294 294 295 295 295
289 283 288 292 294 294 292 293 290 288 286 286 284 286 287 286 290 293 292 291 293 293 290 292 289 294 289 286 283 282 283 284 285 283 286 286 286 287 287 289 289 290 289 289 287 288 283 284 283 282 280 279 280 283 283 284 280 278 280 283 284 285 286 284 282 279 279 280 279 282 283 285 287 289 290 292 292 292 292 291 291 292 291 294 293 295 295 295
291 285 288 283 288 290 288 291 289 288 286 290 283 285 284 286 287 285 291 286 292 290 288 290 291 287 286 285 283 281 281 282 283 281 282 284 287 286 285 289 289 288 288 289 290 286 283 282 283 284 284 286 286 286 285 285 281 282 282 282 284 284 285 284 282 280 284 280 278 284 286 284 286 289 290 291 292 292 293 294 293 290 291 294 296 294 295 294
283 287 291 290 286 283 285 286 289 288 289 289 286 287 285 285 285 284 289 290 286 288 287 286 289 290 290 288 287 282 281 280 280 280 284 285 285 284 284 286 285 288 286 287 290 285 281 280 283 283 284 285 286 287 286 284 284 283 284 283 283 284 283 282 283 285 284 281 280 284 284 284 288 290 292 293 293 293 293 294 294 293 291 292 292 292 292 292
290 289 288 292 286 287 287 289 290 289 288 288 287 287 285 284 284 287 286 285 286 285 289 284 286 289 290 290 287 283 282 278 279 282 282 282 284 284 283 284 285 284 284 285 284 283 282 282 282 282 283 284 285 285 285 284 285 285 284 284 285 284 284 285 285 286 286 284 286 287 287 287 290 291 293 294 295 294 294 294 294 293 293 291 291 291 292 292
286 286 285 289 288 286 289 289 288 288 286 289 284 285 286 286 284 286 286 285 282 284 289 286 287 288 289 290 289 285 286 287 286 282 285 284 282 284 283 285 282 282 284 283 282 281 284 280 286 281 279 282 284 284 283 284 283 283 284 284 284 285 285 285 285 285 286 285 287 287 286 286 291 294 294 295 296 295 294 293 293 294 294 293 291 291 291 292
290 290 291 286 285 286 287 289 287 286 285 286 285 286 286 286 286 289 287 290 288 285 286 286 289 288 289 289 289 289 291 290 290 290 290 287 284 287 285 284 287 281 282 283 282 282 282 280 280 279 278 279 281 281 282 283 283 282 282 283 283 284 283 284 283 286 284 283 285 284 283 284 290 293 293 294 294 293 293 293 293 294 293 292 291 291 291 291
293 292 292 289 284 288 285 288 288 287 283 286 287 286 286 286 288 289 286 290 291 291 290 289 289 288 287 287 288 290 293 293 293 294 293 291 290 288 290 288 289 285 283 283 283 282 281 280 278 278 276 277 280 280 278 276 276 276 277 282 285 285 286 285 286 286 287 288 284 281 283 289 291 292 290 291 291 292 292 292 292 292 292 291 291 291 292 292
Wind_Speed
9 9 9 10 10 10 9 9 9 9 8 8 9 8 8 8 6 5 5 7 7 8 7 8 9 9 10 9 10 11 14 10 10 10 10 2 3 6 4 4 1 1 3 3 7 5 7 7 7 6 5 4 3 5 3 6 2 4 7 6 8 7 10 5 8 6 4 9 5 5 2 3 3 1 2 0 4 5 6 7 5 5 7 8 8 6 8 9
9 10 10 10 10 10 10 9 9 9 9 9 9 10 10 10 9 7 7 9 9 9 9 9 10 10 10 10 10 11 10 8 10 11 8 4 8 12 9 1 3 2 3 6 8 7 8 7 6 6 5 5 3 5 7 2 5 5 4 6 11 8 6 5 6 9 8 7 9 7 2 3 5 1 1 4 5 4 6 7 6 9 11 10 9 9 7 9
9 9 10 10 10 11 10 10 9 9 9 9 9 10 11 11 11 10 9 10 11 10 10 10 11 11 10 11 11 12 7 8 8 7 4 7 8 6 6 2 0 2 4 7 7 9 8 6 3 6 5 5 6 5 5 3 6 6 5 8 9 7 5 3 3 7 9 11 11 10 9 8 7 3 2 8 10 9 12 9 7 11 11 9 13 14 9 10
8 9 9 10 10 11 11 10 10 10 10 9 10 10 11 11 12 12 11 11 12 11 9 10 11 10 10 12 13 10 6 6 4 3 2 7 7 4 4 1 1 2 5 8 10 10 7 6 4 5 4 6 4 7 5 4 4 4 7 8 7 7 10 10 8 10 10 8 12 12 9 9 7 8 6 7 10 13 10 9 11 14 11 10 11 5 10 10
8 9 9 10 10 11 12 12 11 10 11 10 10 11 11 12 12 13 13 11 11 11 10 10 11 11 11 12 15 6 5 5 1 2 4 4 5 3 1 3 1 3 5 7 9 7 7 5 3 5 5 4 6 4 6 5 6 2 7 7 10 6 9 5 7 7 2 3 3 5 8 10 7 10 10 10 14 13 5 6 8 10 7 6 5 6 5 5
8 8 9 10 11 12 12 12 12 12 11 11 11 11 11 11 12 12 13 13 11 11 11 10 10 11 11 13 8 4 2 4 2 3 1 3 4 3 2 2 2 2 4 6 7 6 6 6 7 5 5 5 5 7 4 7 6 8 5 9 6 6 10 6 7 4 1 4 5 7 7 7 7 10 8 10 15 9 8 11 10 10 11 11 11 10 7 9
8 8 9 10 11 12 13 13 13 13 12 12 11 11 11 11 12 12 12 12 12 11 11 10 9 10 12 9 4 3 5 7 2 3 3 4 5 5 3 3 3 0 3 2 9 7 7 8 8 6 6 6 7 6 6 5 8 7 8 4 7 8 13 10 11 8 3 5 9 6 8 12 11 16 6 13 13 13 16 13 12 11 10 10 12 11 13 15
9 9 9 10 11 11 12 13 13 13 13 12 12 11 10 10 11 12 12 12 11 11 10 9 8 8 10 3 2 3 5 5 4 3 5 6 7 5 4 3 3 2 4 6 7 5 6 9 9 6 7 6 2 6 4 8 4 7 8 7 9 10 10 8 6 6 4 7 6 7 11 16 12 14 10 21 15 18 17 13 14 13 13 13 13 15 16 13
9 9 9 10 10 11 12 13 14 13 14 13 13 11 10 10 10 10 10 11 11 10 9 9 8 6 5 2 1 4 5 1 2 3 3 4 5 1 2 2 6 4 3 6 6 6 3 4 7 6 5 7 5 7 3 5 5 8 11 8 7 9 11 9 7 9 10 8 4 7 16 15 12 13 21 24 20 21 12 14 16 13 13 13 14 16 14 12
10 9 9 9 10 11 12 13 14 14 14 14 14 13 11 10 9 9 10 10 10 9 9 6 6 9 4 1 1 3 1 2 1 1 0 3 3 4 6 5 3 4 4 4 4 3 3 3 4 3 5 7 4 7 4 8 2 1 4 7 10 10 9 8 9 8 7 5 5 10 15 12 8 7 15 9 16 7 8 12 12 11 11 11 10 10 9 10
10 10 9 9 9 10 11 13 14 14 14 14 15 14 13 11 10 9 10 10 9 9 7 7 6 7 2 1 2 7 0 2 1 1 2 2 4 3 3 3 1 4 5 5 4 3 3 6 4 3 1 3 5 3 4 2 1 5 6 6 8 9 9 10 10 11 4 6 8 11 14 11 12 8 18 20 19 9 8 9 7 5 6 6 8 9 7 7
11 10 9 9 9 10 11 12 13 14 14 14 15 15 14 12 11 10 10 9 9 7 5 3 2 1 1 2 4 5 2 1 3 3 3 2 3 2 4 2 3 2 3 6 4 4 3 2 3 2 2 2 3 3 2 5 2 4 3 7 9 9 12 12 14 12 7 9 2 1 7 14 11 12 22 23 22 13 9 10 9 8 7 9 8 8 7 9
11 10 10 10 9 10 10 11 12 13 14 15 15 15 14 12 10 9 9 9 7 5 4 2 2 2 1 3 7 2 2 1 2 1 3 3 3 1 0 2 1 2 3 5 4 2 3 0 0 3 2 1 4 2 2 3 3 3 4 5 9 9 11 14 11 11 11 3 5 4 7 8 8 19 20 17 11 9 8 9 9 7 7 7 7 8 9 9
10 10 10 10 10 10 10 11 12 12 13 14 15 15 14 12 11 9 9 9 9 6 3 4 2 2 1 6 1 2 2 1 2 5 1 2 5 3 3 1 1 1 1 2 2 0 1 1 2 3 2 1 1 1 5 2 1 2 4 5 6 4 6 4 6 7 9 4 6 4 7 11 4 11 11 8 10 7 5 5 5 5 7 7 8 9 9 9
9 10 11 11 11 11 10 11 11 12 13 14 14 15 14 13 11 10 9 9 7 3 3 1 2 1 2 6 2 2 2 3 2 2 2 1 1 3 2 1 2 2 1 2 1 0 1 2 2 1 2 0 0 2 4 4 2 2 2 5 5 6 4 2 3 10 10 1 3 5 8 13 12 10 4 2 2 1 4 5 5 7 8 8 8 7 8 9
8 10 11 11 11 11 11 11 11 11 12 14 14 15 15 14 11 9 8 7 4 3 2 2 3 2 4 8 1 3 2 3 5 3 3 4 3 2 0 1 2 2 1 1 0 0 2 3 1 1 1 0 0 1 4 4 4 4 6 5 3 5 8 0 3 3 2 3 4 11 8 8 8 5 2 0 1 3 5 6 7 10 11 12 11 10 10 9
7 9 11 11 12 12 12 11 11 11 12 13 15 14 14 12 9 7 5 6 3 3 3 1 1 2 3 1 0 2 2 2 1 2 2 2 3 2 1 1 2 2 2 1 2 1 2 1 1 0 1 1 1 2 1 5 5 5 5 7 5 6 4 4 2 4 2 4 5 10 8 10 13 16 14 15 14 14 14 14 13 12 10 9 9 8 7 7
6 8 10 11 11 12 12 11 11 11 11 12 13 12 11 11 10 9 3 3 3 3 3 2 1 1 8 2 4 1 2 1 1 1 2 2 2 2 2 1 0 2 2 2 2 2 2 1 0 0 2 3 2 3 6 6 5 4 4 4 6 5 8 6 3 5 4 6 6 4 9 13 14 16 16 12 11 13 15 14 10 9 8 9 9 8 7 7
6 7 9 10 11 11 12 11 10 11 11 13 15 16 13 8 4 5 4 4 4 2 2 4 3 4 1 3 3 3 0 1 3 2 3 1 1 2 1 2 2 2 2 2 1 1 0 2 3 1 5 5 8 7 8 12 6 6 5 3 4 5 4 3 0 0 2 4 6 6 9 10 13 15 15 10 8 11 14 12 10 10 10 10 9 7 7 6
6 7 8 9 11 11 11 11 10 10 10 8 7 2 2 2 3 3 5 6 7 7 3 4 10 2 2 2 2 2 0 2 1 2 3 1 3 1 1 2 0 1 1 1 2 2 3 3 4 7 7 7 5 9 11 12 10 6 6 4 4 6 7 6 2 2 1 2 6 8 9 11 14 14 15 11 7 10 14 13 12 11 10 10 8 7 6 5
7 7 7 9 10 11 11 10 10 8 8 5 6 2 2 2 4 2 5 10 13 11 12 6 14 7 1 2 2 2 1 1 1 2 2 3 0 1 2 3 1 2 3 1 5 0 1 3 8 6 5 7 5 6 11 12 11 9 6 5 7 5 7 6 1 1 2 1 3 5 11 14 13 13 14 13 10 15 15 11 11 13 11 8 7 7 6 4
8 7 7 9 9 10 11 10 9 7 7 5 4 4 4 3 1 2 2 6 8 16 12 11 4 6 3 3 1 0 1 1 1 2 1 2 3 3 3 3 3 4 4 3 4 2 2 9 8 6 2 3 3 0 0 2 4 4 4 4 6 7 6 5 5 1 0 1 7 5 9 15 17 16 17 17 16 15 14 12 13 10 8 5 2 3 2 1
9 8 8 8 9 10 10 10 9 7 4 3 5 5 5 2 2 3 2 6 11 8 13 9 7 8 3 3 2 2 1 4 3 7 5 3 4 4 3 2 4 3 5 5 4 4 3 8 12 1 2 3 2 2 1 1 2 4 4 4 7 4 3 4 1 1 1 2 4 5 10 15 17 15 16 16 13 11 11 12 14 9 5 0 1 3 3 2
9 8 8 8 8 9 11 10 9 7 7 7 6 8 2 0 3 3 2 4 6 1 2 5 6 3 7 3 3 5 5 2 4 6 2 5 5 3 2 4 4 4 5 7 7 6 6 0 2 1 1 3 4 2 2 3 6 5 6 6 6 4 3 1 3 3 5 7 7 4 8 10 8 9 7 5 5 8 10 8 7 6 0 2 1 0 2 2
9 9 8 7 8 9 11 11 5 6 7 6 8 10 9 2 2 3 2 4 3 2 5 3 0 2 1 3 1 3 4 2 3 2 3 4 5 2 4 2 2 4 4 5 7 7 9 2 2 3 2 1 2 3 4 4 5 3 7 11 6 3 3 4 4 6 4 3 3 1 7 6 3 7 12 14 5 5 3 6 7 6 3 4 1 2 3 2
9 9 8 7 7 8 10 5 3 2 4 4 1 2 2 2 2 1 1 2 5 1 2 4 1 2 2 2 3 3 4 4 2 1 3 1 3 1 2 1 2 3 5 6 5 4 2 0 1 2 4 4 3 4 4 5 4 1 3 1 2 1 2 2 4 2 3 1 1 1 1 10 6 10 14 13 6 9 5 7 4 2 3 3 2 4 4 5
7 9 8 6 6 7 4 1 5 5 3 2 2 2 1 1 0 0 0 1 4 2 3 2 1 1 1 2 3 1 3 2 1 1 0 1 1 2 2 2 1 1 2 0 3 4 3 2 2 1 2 3 3 4 3 7 3 4 1 2 2 0 2 2 1 0 4 2 3 4 5 4 12 12 13 9 6 6 6 4 3 1 1 2 3 5 4 2
7 8 8 6 5 4 3 6 7 4 1 2 3 3 2 2 1 1 0 2 2 0 2 2 1 1 1 0 2 2 1 2 3 2 2 0 1 2 0 2 5 5 3 2 5 1 1 1 3 3 3 3 5 1 2 3 4 1 1 3 1 0 1 2 0 3 3 4 7 2 1 1 5 11 14 9 8 7 3 5 4 3 3 4 4 4 3 1
6 7 8 7 6 7 5 4 5 5 3 3 3 4 1 2 2 1 0 2 0 1 3 4 3 1 2 1 1 2 2 2 2 1 0 0 2 0 3 6 3 1 3 4 5 1 2 1 4 3 4 4 2 1 2 2 3 0 2 2 1 1 0 1 1 1 2 0 7 5 5 3 6 9 13 7 5 4 5 7 6 7 6 6 3 2 1 1
6 7 8 7 7 5 5 4 8 5 5 4 5 4 3 1 1 0 2 4 1 1 1 0 2 3 4 5 2 5 3 2 2 2 3 1 2 0 1 2 1 1 3 3 5 0 2 1 0 1 3 1 2 1 0 2 1 0 2 3 3 3 1 0 1 1 1 3 10 9 7 3 3 7 10 4 1 1 5 5 5 6 5 5 3 3 2 2
7 7 7 7 5 3 2 4 2 4 4 4 5 5 2 1 1 1 3 3 3 1 1 1 1 3 4 5 3 5 4 2 3 4 2 0 1 1 2 1 0 2 3 4 6 5 3 2 0 1 3 3 3 3 1 2 1 0 1 2 2 1 1 1 0 1 0 5 3 1 3 2 4 8 7 5 3 6 3 0 4 5 5 4 4 2 2 3
8 8 9 7 7 5 5 3 3 2 3 5 6 3 2 1 1 4 3 1 0 2 1 2 2 2 4 4 3 5 4 3 3 4 4 4 3 5 6 5 4 2 3 5 4 2 3 5 2 3 5 3 3 2 0 2 2 0 1 2 1 1 2 1 1 1 4 6 0 0 3 1 7 14 8 12 15 8 6 2 0 3 5 3 2 2 3 1
8 8 10 8 8 7 9 6 5 1 4 5 2 3 1 2 4 5 3 2 1 2 1 1 3 4 2 1 3 3 1 2 4 4 2 2 3 5 7 7 5 3 1 0 4 1 1 3 3 3 1 4 2 5 2 1 3 3 2 3 2 0 2 4 3 3 2 1 3 1 2 3 6 9 9 13 9 2 1 0 1 2 2 1 1 1 0 1
8 9 7 6 7 8 6 5 2 2 6 3 2 3 2 3 5 3 4 3 2 1 4 2 3 1 2 5 1 4 1 1 4 2 4 2 3 3 5 10 8 2 2 2 1 2 3 2 3 4 2 1 3 1 2 0 7 7 2 1 2 0 1 1 1 3 1 0 1 3 1 5 0 4 2 1 2 6 5 1 3 3 2 2 4 2 1 4
9 7 7 7 8 9 9 6 3 1 4 3 3 4 5 9 2 2 3 2 0 1 2 2 3 2 3 2 2 2 1 2 3 3 3 4 4 3 4 6 9 5 1 1 3 1 6 3 1 2 1 1 4 1 1 1 1 4 2 4 1 5 0 3 1 0 2 2 1 1 5 3 6 5 10 10 8 1 1 0 2 1 3 2 4 3 3 3
7 7 7 7 7 7 8 6 4 4 3 4 4 6 13 6 3 1 1 3 3 4 4 0 1 2 4 4 0 4 2 1 2 1 2 5 5 4 6 3 7 13 7 7 2 3 0 4 0 1 3 0 2 2 1 0 2 1 4 3 3 1 0 1 1 1 1 2 7 3 5 7 5 8 12 11 1 2 1 0 1 1 3 1 3 4 4 4
6 5 6 6 9 5 6 6 6 5 3 5 5 11 7 4 3 0 1 3 2 7 4 3 3 5 2 4 4 3 2 1 2 3 3 3 4 7 5 5 4 9 11 7 3 0 2 1 2 0 1 1 1 3 1 1 0 2 1 3 4 1 0 2 2 0 2 4 4 5 6 6 2 7 3 4 1 4 4 2 2 3 5 3 4 5 5 5
4 4 8 10 4 7 4 7 8 5 3 5 11 8 2 6 1 0 3 3 1 0 2 4 0 7 2 1 1 4 3 3 3 2 2 4 3 3 3 2 4 8 11 3 2 1 2 3 0 2 3 1 1 0 2 1 1 0 1 0 1 1 0 3 0 2 2 2 3 3 5 7 6 6 1 4 4 5 5 5 5 5 5 6 6 6 5 4
4 3 4 2 5 7 6 8 6 6 6 6 10 9 4 5 0 1 3 2 1 3 2 4 2 1 1 1 2 1 6 4 5 5 1 3 1 3 4 4 1 3 0 6 3 1 0 1 1 2 1 2 1 1 3 2 1 1 2 2 1 1 2 3 4 2 1 3 3 6 3 8 4 5 6 9 7 6 6 6 7 8 8 7 6 6 7 6
5 2 4 4 5 9 9 8 4 5 6 13 12 9 1 5 3 2 0 1 3 3 4 3 4 2 3 4 3 3 5 1 5 4 3 2 4 1 3 1 3 0 3 0 3 1 2 3 4 0 3 2 2 5 6 10 8 2 1 2 1 1 2 1 2 2 2 1 1 2 7 4 3 5 6 6 3 4 3 3 6 6 7 7 6 7 6 5
4 3 1 6 8 8 9 5 5 10 10 6 4 5 1 4 2 0 1 5 1 4 0 2 3 5 4 3 5 2 2 4 4 3 4 2 4 3 2 2 5 3 1 3 0 1 1 2 4 3 2 4 5 1 1 2 8 10 12 9 10 7 1 1 8 0 1 2 3 1 10 11 7 1 2 5 3 0 1 2 2 3 8 6 5 5 6 5
5 3 2 8 9 12 11 8 5 4 4 9 9 5 4 4 1 3 1 1 2 1 3 1 3 0 2 4 3 4 4 4 5 3 3 5 4 5 1 4 7 9 8 5 5 2 2 0 1 4 6 8 2 0 1 1 1 1 6 6 8 5 3 3 3 4 1 3 2 1 2 13 1 9 7 4 4 4 1 1 1 1 1 5 5 5 5 6
6 3 3 7 8 10 6 6 4 7 7 4 3 4 1 1 3 4 4 2 1 2 1 2 4 3 5 3 2 3 5 3 6 6 2 4 5 4 2 4 8 7 2 1 2 2 5 1 1 4 1 1 1 0 0 1 1 1 4 2 2 10 10 7 2 2 4 1 1 1 3 11 1 3 1 4 4 4 2 4 5 4 3 4 5 6 6 5
4 3 2 4 7 6 7 11 10 11 9 3 4 5 1 2 4 3 5 5 5 3 4 3 2 7 3 3 2 5 5 0 6 7 4 4 3 2 1 2 8 5 4 4 4 4 4 4 3 1 2 0 1 1 1 2 0 3 3 6 6 2 2 2 2 1 1 7 8 8 11 11 3 4 4 2 1 3 4 5 5 5 5 5 5 6 6 6
2 2 3 3 5 7 8 4 7 9 11 11 9 13 5 2 6 8 7 6 4 3 2 4 6 3 4 2 3 2 5 10 1 5 5 4 3 0 3 3 5 2 3 4 1 1 3 3 6 4 6 6 3 1 4 6 9 3 3 3 6 10 6 4 4 3 4 5 12 5 8 16 12 4 5 5 4 5 6 6 6 6 6 7 6 6 6 5
5 4 3 3 5 5 7 2 1 5 9 9 9 11 6 10 2 4 8 5 8 4 5 1 1 2 3 3 4 6 8 2 5 1 2 3 2 1 1 1 2 1 1 3 3 1 2 1 5 7 8 9 7 1 2 4 4 5 3 6 7 8 7 5 1 2 10 9 8 9 11 16 18 14 13 15 10 9 9 5 4 4 5 7 6 5 5 5
2 5 6 5 3 8 8 6 4 3 5 9 8 5 13 18 6 1 8 4 8 8 2 3 3 4 4 4 6 6 2 4 4 1 7 4 1 2 2 2 3 4 2 1 3 0 1 2 7 9 8 10 7 2 4 6 4 5 5 7 8 8 10 10 9 13 9 4 15 9 12 11 19 22 19 19 18 11 11 12 7 5 5 4 5 5 6 5
4 5 4 7 7 9 12 12 13 7 8 9 12 5 11 13 11 9 1 5 2 5 7 1 5 12 11 13 5 4 5 5 3 6 7 5 3 2 1 1 2 5 4 1 0 2 2 4 5 5 10 11 9 10 6 3 4 4 7 7 9 10 8 12 16 19 8 11 16 7 8 12 18 19 23 22 17 15 13 12 9 7 5 2 3 5 6 7
5 3 3 3 10 4 16 14 19 21 20 17 10 11 11 11 15 13 7 3 3 3 11 9 13 18 18 11 9 7 6 4 7 10 7 5 7 4 3 0 1 4 4 1 1 2 1 6 4 5 7 8 9 9 5 9 10 10 10 9 9 11 15 20 20 17 17 16 14 15 17 20 14 15 21 22 15 10 11 8 8 9 9 6 5 6 7 6
8 8 3 3 3 3 6 9 10 15 15 17 12 17 11 12 14 6 4 7 4 7 8 17 14 13 18 15 12 12 13 15 11 9 9 5 0 4 5 7 3 1 3 5 4 2 6 3 7 3 5 9 11 7 7 9 8 15 10 7 8 12 17 20 15 13 15 19 18 22 22 19 16 18 21 22 20 15 11 12 14 14 13 10 6 7 7 7
1 3 0 3 7 7 4 7 9 13 12 12 16 19 7 14 14 11 10 11 19 10 12 24 16 12 10 13 16 18 14 15 16 19 6 13 11 8 7 3 10 6 4 4 2 2 5 4 1 1 2 8 4 5 8 7 12 16 15 9 11 18 19 14 15 14 13 17 21 18 13 16 21 23 20 19 20 20 19 17 13 11 10 8 7 7 6 7
2 1 0 1 6 5 9 6 8 6 15 19 17 15 10 20 12 10 12 10 14 10 11 16 15 14 12 12 19 20 18 18 17 9 4 10 6 4 11 5 12 11 9 7 4 6 7 4 3 1 6 8 5 4 3 4 11 19 15 14 22 25 19 11 12 11 20 23 16 12 20 20 22 18 16 15 14 16 16 12 10 8 6 5 5 5 7 9
Wind_Direction
330 327 329 323 324 323 322 323 317 316 317 321 322 321 318 316 310 296 297 300 298 300 301 309 311 311 307 306 305 302 300 286 300 293 276 296 344 3 9 321 280 101 222 231 244 202 216 212 205 198 196 191 204 236 171 182 147 181 218 227 237 227 231 221 245 245 249 258 273 241 114 291 294 230 183 259 210 228 249 250 244 222 218 220 234 233 157 148
328 327 325 323 322 320 319 317 316 314 316 322 324 324 322 316 306 297 296 300 301 302 311 320 318 314 310 304 302 295 296 287 294 298 283 351 7 350 325 323 187 187 299 252 240 217 243 212 214 174 203 213 168 219 131 194 156 198 226 226 235 220 242 244 245 261 277 286 294 300 304 262 271 10 275 270 268 244 247 233 223 240 237 227 231 231 154 165
327 327 324 324 321 319 317 314 314 313 317 324 327 326 321 315 308 302 305 311 311 311 315 318 318 313 310 310 302 301 308 301 312 297 59 15 8 338 310 55 314 185 223 247 239 243 236 265 207 188 208 240 167 221 158 195 172 209 228 229 236 241 254 248 288 262 265 285 293 305 290 293 296 289 333 274 277 265 257 261 267 261 258 237 224 220 203 174
331 327 327 325 321 319 316 316 315 316 319 324 324 323 320 316 314 310 308 309 312 312 314 315 316 315 315 318 317 316 310 301 293 86 32 23 327 324 28 21 140 235 258 272 284 302 291 249 258 222 232 222 192 214 168 193 175 168 221 231 237 226 249 257 251 273 280 279 278 274 294 293 296 284 256 257 270 257 254 240 245 254 254 259 266 232 209 201
330 327 327 324 323 320 318 320 319 320 321 321 323 323 325 322 320 315 310 307 312 311 310 317 325 318 326 323 319 315 317 291 100 102 34 329 293 316 223 126 178 264 263 284 298 277 288 258 224 235 242 234 237 231 217 220 195 269 220 229 242 250 260 255 277 267 295 343 329 293 286 279 297 272 262 259 252 256 247 247 242 254 267 279 289 311 298 216
320 323 324 320 321 322 320 320 323 323 324 326 326 327 326 325 323 322 316 312 311 310 308 322 327 321 330 317 307 291 288 288 164 128 296 288 296 289 227 185 115 315 309 303 276 267 245 240 223 214 219 239 233 226 199 231 173 240 240 244 244 256 267 272 275 264 146 275 273 274 272 299 279 282 271 269 257 267 252 256 260 266 272 280 287 293 281 274
319 321 315 319 316 318 318 318 321 322 323 322 323 325 327 326 326 324 320 319 315 314 312 315 325 324 329 311 255 262 252 267 46 161 138 259 295 256 184 145 119 219 271 259 260 251 221 240 213 221 222 230 237 250 243 228 194 218 248 247 243 233 247 253 256 263 239 238 255 270 303 278 276 275 263 255 257 261 260 262 263 269 273 267 265 258 257 260
317 317 319 317 316 314 313 314 315 317 316 318 319 321 324 321 324 322 322 321 320 317 315 307 320 337 343 3 350 252 231 250 116 135 171 214 215 168 159 205 162 196 251 234 251 240 266 240 222 218 238 234 198 225 234 255 179 216 246 257 271 279 264 244 248 247 209 243 264 274 268 259 260 266 295 265 261 259 258 265 265 263 262 259 256 257 259 257
312 315 319 319 322 320 314 313 312 314 315 317 316 315 314 321 320 323 324 321 322 316 305 296 320 330 323 262 77 296 270 49 75 65 359 349 7 11 264 285 188 220 244 256 249 274 250 254 257 225 235 224 241 259 224 217 222 217 238 245 256 245 253 254 250 248 253 260 228 264 256 261 261 277 264 263 262 255 261 259 260 259 258 257 255 255 254 248
304 310 312 317 319 318 315 312 312 313 315 313 312 310 310 315 320 323 321 316 313 311 298 291 313 316 299 95 211 268 262 239 108 80 10 304 311 283 227 251 290 259 266 248 270 261 259 271 278 344 327 320 281 240 229 185 245 122 261 250 255 263 267 258 246 249 245 249 223 238 259 263 259 257 272 240 249 259 240 245 245 238 241 241 245 251 245 247
305 305 310 316 314 313 315 313 312 310 311 311 309 309 308 313 320 321 317 312 309 301 301 278 308 316 73 34 227 255 335 39 275 130 266 276 283 286 320 355 303 265 258 275 261 258 264 256 24 316 335 264 347 304 241 220 332 295 295 306 286 288 281 277 274 265 257 256 236 241 260 266 257 242 251 270 265 239 252 250 255 250 251 245 248 256 260 248
305 306 311 311 313 313 310 313 312 313 310 309 307 306 310 315 319 321 316 313 300 298 282 280 291 295 103 122 226 242 143 166 215 173 201 248 297 286 293 309 318 279 273 267 241 232 263 353 4 299 225 3 233 288 272 347 294 280 306 286 289 276 264 243 239 239 211 243 188 35 306 269 243 229 245 248 261 267 240 250 247 249 251 255 252 242 236 236
305 307 308 310 313 313 313 312 312 311 311 308 307 307 311 313 315 316 310 299 293 301 302 225 142 304 307 272 226 206 206 239 186 124 255 175 269 240 204 43 321 323 307 274 285 26 11 38 279 277 336 307 335 261 306 278 243 256 258 256 287 280 266 250 235 220 211 220 122 107 285 248 238 222 244 252 252 252 239 241 247 240 241 249 242 237 236 233
304 307 308 311 313 314 315 313 312 309 310 307 307 307 308 313 310 307 299 288 287 285 302 195 229 243 303 255 269 240 239 288 321 254 59 317 258 158 102 91 75 339 57 235 320 227 282 296 201 248 269 223 257 25 299 246 160 220 260 207 244 280 265 255 190 139 187 118 160 125 240 266 299 312 281 267 231 220 247 234 245 250 250 243 233 230 231 232
308 309 310 311 311 313 312 313 311 310 306 307 304 306 306 303 306 298 288 285 271 252 218 216 227 252 230 267 233 248 240 6 262 113 96 204 226 154 129 133 5 313 264 224 227 175 186 221 215 148 237 74 291 289 299 289 225 209 303 241 217 221 265 285 127 156 190 171 213 162 254 261 272 261 275 54 41 354 257 254 245 247 252 256 259 249 237 233
313 310 314 310 311 312 313 314 313 310 308 306 307 305 301 297 296 295 271 265 302 176 193 202 204 213 303 287 186 104 138 198 183 148 188 204 87 88 206 240 114 318 267 224 28 83 216 206 193 200 57 41 227 280 304 323 282 208 209 278 264 183 243 255 223 230 324 133 205 188 252 314 289 281 322 256 112 222 255 245 237 239 242 245 246 246 245 246
315 312 312 314 312 311 313 312 313 310 310 307 306 300 293 291 289 290 273 261 210 201 196 338 92 175 275 138 141 285 211 142 263 199 210 73 99 112 15 2 192 208 195 226 194 164 211 203 257 243 229 271 196 162 315 265 276 258 191 233 250 251 266 255 41 311 160 219 202 219 246 250 269 284 280 287 285 285 275 271 268 265 261 254 248 242 239 239
313 311 311 313 312 313 312 315 313 312 311 305 298 293 288 289 291 302 252 259 156 171 237 103 235 233 254 299 280 236 71 132 139 4 12 101 93 84 71 245 43 188 205 179 208 195 220 119 114 226 169 203 240 197 193 232 193 248 201 216 267 270 242 255 250 185 200 201 234 234 237 262 269 275 277 268 264 259 262 263 262 256 250 249 248 249 248 246
311 310 311 309 311 310 313 313 313 312 312 306 296 275 276 281 282 242 221 155 145 159 208 191 183 177 228 230 167 105 3 85 76 22 14 72 138 88 273 255 253 212 219 198 206 137 315 67 24 25 238 201 208 214 219 239 308 347 356 292 301 291 295 272 95 169 259 243 246 241 260 276 276 278 281 278 272 273 273 277 277 269 262 257 251 249 244 242
306 308 309 309 311 313 313 312 311 312 313 313 321 251 200 189 185 181 199 191 234 219 262 150 201 341 350 292 140 40 136 201 191 221 109 174 72 70 245 214 165 350 272 213 112 281 129 159 195 209 218 219 210 218 234 252 273 305 309 315 302 299 282 273 287 156 178 292 249 258 265 267 269 271 278 278 272 265 268 271 268 265 256 248 244 240 240 226
307 311 310 311 309 314 313 310 309 306 297 301 300 288 218 295 269 262 177 222 222 232 246 218 188 204 219 93 113 162 218 212 311 138 195 116 20 260 197 156 165 259 227 236 139 227 149 207 237 226 222 232 254 232 223 242 256 282 301 289 282 269 279 278 290 179 59 73 294 326 295 280 275 281 281 287 280 271 264 261 259 260 256 244 220 221 216 217
297 300 312 313 314 315 314 304 303 304 297 270 260 232 319 66 335 271 298 278 208 227 232 235 195 227 115 162 68 266 49 287 264 175 116 139 174 184 148 192 173 202 170 85 96 89 164 225 239 237 237 212 199 256 97 215 273 282 265 279 286 269 265 278 69 81 56 99 274 298 313 292 287 281 277 269 264 261 262 253 251 246 256 261 234 180 171 92
294 298 306 314 315 315 313 308 293 296 293 216 220 241 270 23 329 324 302 265 276 213 213 213 201 219 210 107 176 127 229 218 240 174 178 174 157 249 147 207 192 222 155 183 182 160 237 245 234 137 254 222 219 175 171 332 248 238 253 249 246 266 295 301 348 11 211 176 285 321 305 289 286 278 270 267 255 251 246 242 250 244 227 216 47 77 79 62
291 297 300 309 315 313 309 306 303 276 233 235 246 230 71 256 7 313 254 273 298 115 211 192 209 199 208 187 159 173 198 215 206 189 111 166 189 178 208 213 223 212 198 202 209 207 217 301 87 232 167 219 231 175 178 197 250 220 222 248 254 264 273 201 311 323 304 245 225 306 288 282 264 276 301 278 281 234 234 239 257 282 328 127 86 6 160 178
293 291 297 305 311 313 303 312 281 226 208 204 249 258 280 341 307 11 314 279 231 223 14 36 20 253 159 41 139 177 196 276 246 79 172 184 180 75 223 203 245 240 220 207 213 242 262 186 344 154 185 166 227 234 210 198 252 268 222 216 235 294 309 329 339 342 345 334 47 29 350 288 325 327 305 291 301 253 235 207 245 263 267 96 153 222 191 194
289 287 295 303 310 309 317 292 188 179 183 217 73 16 16 345 303 295 306 271 290 120 333 164 160 222 59 159 99 227 64 232 34 86 149 186 5 229 62 238 173 259 221 205 210 229 237 74 221 213 156 205 220 224 213 168 228 313 275 31 18 290 324 323 292 343 311 283 300 69 67 282 294 286 286 283 287 254 231 204 229 35 93 126 190 187 164 189
285 287 290 302 306 319 287 93 354 308 224 165 17 346 345 305 135 344 266 205 274 147 152 10 343 131 53 128 175 215 206 147 232 75 214 226 225 183 256 169 59 223 296 344 41 260 102 156 71 310 195 198 219 227 202 160 175 250 308 326 350 266 186 240 287 261 248 312 285 165 161 243 301 290 273 280 282 257 251 122 70 44 92 177 184 161 166 176
283 286 287 291 290 279 302 328 302 238 323 15 320 312 300 240 221 257 121 322 258 34 129 186 45 305 340 166 298 250 45 136 181 184 18 113 246 105 227 211 178 199 201 119 213 287 144 153 205 168 202 188 220 196 336 172 173 212 256 304 331 3 353 326 126 279 262 334 288 228 151 273 258 276 282 288 293 269 183 125 126 137 191 190 180 184 181 160
278 285 285 284 284 277 261 250 295 272 28 327 337 300 300 245 257 222 354 273 146 135 310 97 291 162 135 159 203 274 233 191 321 101 220 38 284 28 185 255 265 15 188 200 230 151 295 179 181 180 146 211 141 10 4 4 224 114 247 258 273 291 335 248 304 239 291 217 268 252 178 207 281 273 285 301 263 260 146 138 152 165 183 190 179 125 133 182
274 279 286 288 296 241 223 226 239 268 339 341 313 301 274 224 174 156 76 259 88 217 8 68 212 158 160 154 191 182 237 187 72 121 189 185 149 194 272 116 323 215 204 219 252 233 142 53 71 152 206 108 130 93 96 29 123 226 257 245 220 208 190 308 154 226 342 256 250 244 186 157 304 257 249 290 299 302 118 143 170 171 166 156 138 133 102 70
269 272 277 284 266 358 338 220 157 8 340 322 310 291 218 227 220 262 208 224 55 154 139 212 145 133 171 185 172 171 210 210 153 157 138 341 119 289 258 315 315 309 259 242 239 193 159 105 226 247 82 128 125 98 343 237 332 220 209 237 284 281 131 144 226 87 194 269 233 318 158 152 177 286 259 202 145 45 357 28 169 167 154 133 131 110 98 79
268 271 267 262 270 281 236 132 21 307 344 311 288 223 184 214 239 191 215 71 266 198 182 141 112 192 198 245 298 154 185 184 175 184 185 179 171 177 195 212 147 172 272 204 258 95 225 205 136 78 300 163 191 126 247 193 224 97 289 324 88 263 48 338 52 311 217 225 286 74 92 347 246 239 275 301 294 297 264 247 247 146 145 110 77 78 90 102
263 270 271 263 266 253 254 281 280 343 319 305 268 233 196 223 248 197 272 152 259 126 211 4 154 183 200 157 255 165 13 194 145 194 220 209 223 215 201 223 188 204 257 209 195 179 276 18 131 101 79 242 207 170 170 318 215 166 161 159 123 197 225 260 223 220 206 319 264 182 244 257 263 284 246 252 268 247 95 227 141 122 112 110 120 86 61 123
265 268 269 254 249 247 260 268 288 339 315 246 200 181 295 236 234 11 193 202 206 276 85 102 119 66 129 193 295 141 231 171 145 186 137 208 169 253 215 211 230 261 145 304 259 217 296 315 212 158 226 91 216 300 161 145 159 208 204 170 193 197 208 236 206 211 238 187 209 298 39 234 141 243 203 226 262 275 263 213 153 166 166 143 156 172 154 94
270 270 266 264 257 250 244 240 222 221 291 232 179 200 193 222 301 207 215 183 150 187 149 297 147 114 226 302 251 283 51 206 235 133 189 207 222 197 205 208 207 200 191 41 232 231 208 223 226 348 178 124 183 81 133 350 130 205 203 69 56 234 94 206 220 67 300 354 322 238 207 224 206 280 302 290 284 274 75 36 189 113 106 117 98 109 127 139
276 264 239 247 238 237 216 216 216 187 235 198 173 207 221 182 204 163 253 91 122 148 126 71 204 181 229 186 148 214 58 112 185 131 247 210 233 212 206 225 191 187 181 188 164 213 50 253 305 182 241 76 21 341 118 85 165 264 85 202 209 325 93 310 355 41 70 83 255 195 282 277 273 285 259 260 7 162 22 43 84 123 130 98 144 157 178 178
254 269 248 219 220 201 192 185 175 174 218 212 189 228 214 255 208 338 112 177 183 131 151 138 224 168 214 203 177 188 172 114 211 174 260 162 264 228 230 241 163 183 203 176 276 86 167 251 321 103 257 341 27 0 317 317 76 72 185 251 305 261 74 134 229 313 225 214 259 185 240 277 342 302 328 90 174 239 180 196 204 179 151 156 201 196 195 184
256 271 270 257 232 138 154 159 152 190 225 192 219 241 152 225 245 185 102 85 5 275 148 161 283 152 250 192 145 144 166 159 173 131 256 172 273 157 143 205 178 182 202 206 162 284 93 299 265 309 37 31 308 10 337 318 113 121 206 136 118 189 211 246 119 276 248 256 269 260 252 255 185 236 263 265 237 225 215 185 180 177 178 200 196 200 195 177
246 265 272 140 93 138 136 159 192 180 188 200 224 237 220 230 165 166 203 177 353 164 166 223 168 206 123 229 108 88 146 173 157 194 190 208 196 187 182 165 192 43 282 130 207 235 23 203 290 298 336 153 48 114 198 215 347 335 354 319 214 61 250 142 203 221 88 264 9 291 316 269 186 211 207 244 247 263 200 171 189 194 194 191 192 189 183 187
237 192 232 117 169 132 150 167 189 208 207 207 212 222 92 213 190 146 136 155 214 175 232 196 216 183 158 207 138 168 210 189 151 224 178 208 215 187 206 283 144 148 62 354 177 54 227 129 262 194 324 43 233 185 221 160 171 204 155 272 356 232 212 108 305 195 176 203 219 310 300 257 233 204 193 218 247 300 305 241 206 187 182 187 190 179 182 191
239 274 182 143 147 157 141 176 188 197 208 234 260 241 158 206 163 227 92 27 331 33 219 237 182 191 172 170 268 193 166 191 187 213 189 267 170 301 204 140 136 139 89 30 291 235 176 148 204 112 202 218 243 161 220 193 186 182 171 204 187 144 175 153 273 76 158 116 249 201 264 281 227 264 238 243 243 107 296 30 300 197 168 177 175 182 176 191
214 205 175 148 164 169 157 161 217 195 229 200 213 205 232 191 195 168 130 53 20 240 33 18 299 156 154 188 165 171 169 186 200 201 233 202 222 212 250 211 151 153 137 179 195 218 154 177 212 203 201 212 215 255 293 69 91 168 173 221 174 203 152 151 199 249 24 249 78 182 58 270 191 186 222 206 158 206 203 175 202 283 164 163 188 196 203 195
213 245 46 169 180 183 173 214 184 208 224 232 338 311 88 277 201 159 153 190 176 185 204 212 212 174 258 176 218 170 180 232 165 207 206 205 237 211 313 283 139 161 143 204 78 267 76 243 236 271 29 336 269 227 113 12 320 309 271 244 172 203 197 201 184 161 169 153 174 220 183 264 305 10 139 143 182 178 176 200 202 237 229 194 191 202 206 221
215 219 122 148 178 217 189 196 189 214 217 255 248 251 104 245 166 174 205 186 175 172 192 197 285 222 248 178 170 197 178 322 209 182 254 191 234 106 283 306 162 181 165 212 159 208 126 240 166 280 265 315 334 353 345 343 33 240 217 205 216 288 256 220 96 267 305 201 198 154 234 272 233 237 224 206 182 226 226 244 211 217 250 233 224 225 225 234
242 214 101 154 171 219 208 201 201 195 210 212 221 235 224 267 226 203 181 202 203 176 158 215 203 157 215 167 211 176 212 192 258 226 207 188 214 28 52 225 349 252 12 356 330 176 180 190 141 184 212 237 229 256 238 232 218 217 259 219 198 201 207 105 245 210 209 248 218 208 254 256 262 303 299 260 235 253 244 234 236 216 226 235 234 237 229 221
205 201 159 128 180 242 282 323 310 213 202 209 237 242 212 240 200 230 195 223 181 206 203 124 4 189 163 146 215 211 225 257 178 228 194 224 168 273 154 12 126 76 229 334 311 352 195 273 200 200 198 222 217 196 269 101 83 184 237 188 207 207 204 202 15 160 214 234 241 232 235 265 283 276 271 273 262 264 282 272 268 268 251 239 230 214 214 208
303 240 156 172 90 242 242 243 226 186 213 166 222 168 217 224 206 309 176 216 194 193 213 190 175 151 215 178 211 229 206 215 257 311 230 201 119 155 266 227 139 140 132 24 267 53 8 252 240 236 240 243 249 236 192 158 162 205 161 209 201 187 200 200 198 227 212 259 257 230 237 248 264 275 270 268 269 262 262 271 269 257 259 241 198 210 217 228
203 244 187 186 163 196 200 230 221 227 242 202 226 136 211 216 205 214 116 228 27 212 177 291 210 216 200 195 156 200 180 206 147 218 247 227 200 193 105 201 206 161 133 135 94 152 187 225 244 231 251 257 258 263 249 263 221 212 196 185 191 196 191 203 222 229 204 213 243 242 223 232 248 257 269 265 263 271 267 265 266 256 240 228 206 215 226 235
235 348 292 184 214 207 190 198 186 208 213 210 235 211 222 202 214 202 171 161 168 239 191 220 211 213 219 204 175 208 155 157 244 240 225 209 198 134 214 80 267 112 159 170 132 202 87 241 253 238 263 264 267 263 264 257 263 254 233 216 190 189 205 210 221 224 222 238 245 253 253 246 246 260 262 268 267 255 268 288 289 284 276 263 231 239 243 247
195 196 216 245 271 318 189 191 198 210 221 213 222 225 217 210 220 182 178 152 191 227 198 224 213 210 219 210 199 213 196 201 203 214 221 174 67 182 218 195 143 272 189 182 156 289 154 260 176 239 263 261 264 270 268 265 262 262 247 218 204 213 220 217 222 228 232 244 247 250 250 263 261 252 262 271 275 278 282 275 275 282 288 285 263 245 246 251
15 219 93 160 217 217 188 187 195 198 219 220 224 233 205 224 219 193 217 192 203 192 177 214 209 224 226 208 213 221 215 215 221 230 166 172 204 203 168 251 143 150 178 164 168 212 140 248 89 121 280 263 252 253 255 260 256 255 246 204 220 228 232 219 219 215 217 230 235 244 260 255 256 256 254 260 273 276 275 275 272 269 270 268 252 246 234 240
120 287 253 128 239 172 199 187 205 175 226 220 213 220 205 223 210 183 238 219 221 212 186 203 205 209 233 209 214 215 220 223 230 239 220 198 205 166 196 189 159 157 172 188 157 145 177 163 188 153 241 255 253 265 332 318 318 277 226 197 218 226 224 232 235 222 221 221 231 227 237 235 243 253 264 259 248 260 265 268 279 274 254 226 216 222 237 243